[[{"header":{"parameterUnit":"m.s-1","parameterCategory":1,"la1":30.2991,"la2":30.254,"lo1":-89.0895,"lo2":-89.0444,"dx":0.0017,"dy":0.0017,"nx":28,"ny":28,"refTime":"2023-01-27T09:00:00:Z","depth":0,"parameterNumber":2,"parameterNumberName":"U-component_of_WINDS"},"data":[0,0,0,0,0,0,0,0,0,0,0,0,0,0,0,0,0,0,0,0,0,0,0,0,0,0,0,0,0,0,0,0,0,0,0,0,0,0,0,0,0,0,0,0,0,0,0,0,0,0,0,0,0,0,0,0,0,0,-1.9844,-1.9844,0,-1.9839,-1.9838,-1.9838,-1.975,-1.9748,-1.9746,-1.9744,-1.974,-1.9742,-1.9744,0,0,0,0,0,0,0,0,0,0,0,0,0,-1.9783,-1.9784,-1.9844,-1.9844,-1.9844,-1.9839,-1.9838,-1.9838,-1.9751,-1.9748,-1.9745,-1.9743,-1.9739,-1.9742,-1.9744,0,0,0,0,0,0,0,0,0,0,0,0,0,-1.9797,-1.9785,-1.9844,-1.98,-1.9796,-1.9839,-1.9838,-1.9838,-1.9751,-1.9748,-1.9744,-1.9741,-1.9739,-1.9741,-1.9744,-1.983,0,0,-1.9754,-1.9755,0,0,0,0,0,0,0,0,-1.9796,-1.9799,-1.9806,-1.9803,-1.9798,-1.9792,-1.9815,-1.9836,-1.9752,-1.9768,-1.9744,-1.974,-1.976,-1.9761,-1.9767,-1.983,-1.983,-1.9754,-1.9756,-1.9757,-1.9758,0,0,0,0,0,0,0,-1.9795,-1.9799,-1.9842,-1.9807,-1.9802,-1.9781,-1.9779,-1.9819,-1.9783,-1.9766,-1.976,-1.976,-1.9757,-1.9765,-1.9767,-1.983,-1.9754,-1.9756,-1.9758,-1.9759,-1.9965,-1.9969,0,0,0,0,0,0,-1.98,-1.9799,-1.9842,-1.9842,-1.9789,-1.9785,-1.9783,-1.9797,-1.9782,-1.9777,-1.9763,-1.9756,-1.9761,-1.9763,-1.9766,-1.9867,-1.9757,-1.976,-1.9761,-1.9962,-1.9966,-1.997,0,0,0,0,0,0,-1.9799,-1.9805,-1.9842,-1.9819,-1.9822,-1.979,-1.9806,-1.9799,-1.9806,-1.978,-1.9774,-1.9777,-1.9759,-1.9762,-1.9815,-1.9866,-1.9761,-1.9764,-1.9958,-1.9963,-1.9968,-2.0069,0,0,0,0,0,0,-1.9798,-1.9805,-1.9836,-1.982,-1.9823,-1.9891,-1.9809,-1.9801,-1.9811,-1.9802,-1.9791,-1.9787,-1.9756,-1.9811,-1.9818,-1.9868,-1.9766,-1.9953,-1.996,-1.9967,-2.0061,-2.0078,-2.0092,0,0,0,0,0,-1.9796,-1.9865,-1.9838,-1.9844,-1.9862,-1.9894,-1.9896,-1.9859,-1.9816,-1.9848,-1.9831,-1.9787,-1.9859,-1.9818,-1.9825,-1.9876,-1.995,-1.9958,-1.9966,-2.0055,-2.0074,-2.0091,0,0,0,0,0,0,-1.9888,-1.9862,-1.9832,-1.9898,-1.9899,-1.9879,-1.9918,-1.9881,-1.9895,-1.9886,-1.984,-1.9839,-1.99,-1.9893,-1.9847,-1.996,-1.9897,-1.9907,-1.9962,-1.998,-1.9995,-1.9996,-1.9769,0,0,0,0,0,-1.9916,-1.9944,-1.992,-1.998,-1.9982,-1.9951,-1.9963,-1.9935,-1.9934,-1.9934,-1.9922,-1.9924,-1.9947,-1.9963,-1.9983,-2.006,-2.0058,-2.0099,-2.0114,-2.0127,-2.0136,-2.0178,-2.0197,-1.9997,-1.9997,-1.9997,0,0,-1.9975,-1.9964,-1.9984,-1.9999,-1.9996,-2.0027,-1.9951,-1.9987,-2.0009,-1.994,-1.999,-1.9981,-1.998,-2.0047,-2.0075,-2.0043,-2.0191,-2.0137,-2.0148,-2.015,-2.0189,-2.0208,-2.0225,-2.0003,-2.0002,-2.0001,0,0,-2.0097,-2.0091,-2.0141,-2.014,-2.0137,-2.0116,-2.0129,-2.0115,-2.0106,-2.0155,-2.0105,-2.0132,-2.0172,-2.0174,-2.0181,-2.0307,-2.0267,-2.0314,-2.0393,-2.0435,-2.0451,-2.0465,-2.0511,-2.0528,-2.0324,-2.0324,-2.0324,0,-2.017,-2.0213,-2.0172,-2.0211,-2.022,-2.0158,-2.021,-2.0212,-2.0216,-2.0224,-2.0188,-2.0239,-2.0234,-2.0301,-2.0332,-2.0339,-2.0353,-2.0315,-2.0452,-2.0465,-2.0477,-2.0521,-2.0538,-2.033,-2.0329,-2.0329,-2.0328,0,-2.0303,-2.0335,-2.0376,-2.0382,-2.0395,-2.044,-2.0408,-2.0427,-2.0398,-2.0381,-2.0433,-2.0426,-2.0444,-2.0457,-2.0429,-2.0521,-2.0501,-2.0459,-2.0395,-2.0503,-2.0543,-2.0559,-2.0338,-2.0336,-2.0334,-2.0333,0,0,-2.0482,-2.0466,-2.0482,-2.0485,-2.0478,-2.0502,-2.0545,-2.0563,-2.0581,-2.0586,-2.0623,-2.0659,-2.0621,-2.0629,-2.0601,-2.0637,-2.0739,-2.0591,-2.059,-2.062,-2.0842,-2.0874,-2.0894,-2.0713,-2.0716,-2.0718,-2.0842,0,-2.0601,-2.0673,-2.0639,-2.0716,-2.0745,-2.0688,-2.0727,-2.0728,-2.0714,-2.0738,-2.0722,-2.075,-2.0696,-2.0701,-2.0734,-2.072,-2.0784,-2.071,-2.0748,-2.075,-2.075,-2.0915,-2.0948,-2.1065,-2.0858,-2.086,-2.0862,0,-2.0748,-2.076,-2.084,-2.083,-2.0841,-2.0876,-2.089,-2.0913,-2.0914,-2.0902,-2.0911,-2.0876,-2.0919,-2.0856,-2.0917,-2.0868,-2.0881,-2.0877,-2.0881,-2.0883,-2.0813,-2.0923,-2.1102,-2.112,-2.0886,-2.0884,-2.0883,0,-2.0872,-2.0908,-2.0961,-2.0965,-2.0954,-2.0981,-2.0978,-2.0975,-2.0988,-2.1001,-2.101,-2.1028,-2.1038,-2.1054,-2.1025,-2.0981,-2.1091,-2.1024,-2.1083,-2.1084,-2.1108,-2.1107,-2.1293,-2.1116,-2.1116,-2.1116,-2.1115,0,-2.1008,-2.106,-2.1017,-2.105,-2.1107,-2.1067,-2.1125,-2.1116,-2.1115,-2.1146,-2.1098,-2.1129,-2.1088,-2.1115,-2.1093,-2.1148,-2.1152,-2.1145,-2.1138,-2.1149,-2.1151,-2.1158,-2.1149,-2.112,-2.1119,-2.1118,-2.1118,0,-2.1156,-2.1129,-2.1183,-2.1169,-2.1167,-2.121,-2.1198,-2.1229,-2.1212,-2.1252,-2.126,-2.1234,-2.1264,-2.1236,-2.1265,-2.125,-2.1323,-2.1305,-2.1323,-2.1318,-2.1378,-2.1374,-2.1576,-2.1601,-2.1408,-2.141,-2.1411,0,-2.1244,-2.1283,-2.1273,-2.1291,-2.129,-2.1319,-2.1332,-2.1296,-2.1313,-2.1318,-2.1348,-2.1374,-2.1392,-2.1443,-2.1428,-2.145,-2.1432,-2.1501,-2.1435,-2.1446,-2.1434,-2.1433,-2.1437,-2.1515,-2.1517,-2.1519,-2.1521,0,-2.1405,-2.1391,-2.1412,-2.1429,-2.1447,-2.1459,-2.1467,-2.1485,-2.1447,-2.1469,-2.1498,-2.1513,-2.1542,-2.1569,-2.1587,-2.1585,-2.1548,-2.1542,-2.1557,-2.1569,-2.1578,-2.1575,-2.1361,-2.1537,-2.1536,-2.1535,-2.1534,-2.1533,-2.1526,-2.1559,-2.1558,-2.1583,-2.1586,-2.1596,-2.1624,-2.1612,-2.1636,-2.1656,-2.1634,-2.1671,-2.1673,-2.1693,-2.1696,-2.1725,-2.1696,-2.1717,-2.1723,-2.1729,-2.1738,-2.1573,-2.1728,-2.1727,-2.1727,-2.1726,-2.1726,0,-2.1686,-2.1683,-2.1707,-2.172,-2.1742,-2.1704,-2.1712,-2.1733,-2.1765,-2.177,-2.179,-2.1825,-2.1852,-2.1839,-2.1863,-2.1889,-2.1872,-2.1896,-2.1894,-2.1895,-2.1762,-2.1747,-2.1909,-2.1909,-2.1909,-2.1909,-2.1909,-2.1909,-2.1771,-2.1824,-2.181,-2.1865,-2.1861,-2.1897,-2.1905,-2.1914,-2.1918,-2.196,-2.1981,-2.1973,-2.1972,-2.1995,-2.2018,-2.2014,-2.2025,-2.2056,-2.2046,-2.1922,-2.1904,-2.1887,-2.1873,-2.2058,-2.2058,-2.2176,-2.2177,-2.2178]},{"header":{"parameterUnit":"m.s-1","parameterCategory":1,"la1":30.2991,"la2":30.254,"lo1":-89.0895,"lo2":-89.0444,"dx":0.0017,"dy":0.0017,"nx":28,"ny":28,"refTime":"2023-01-27T09:00:00:Z","depth":0,"parameterNumber":3,"parameterNumberName":"V-component_of_WINDS"},"data":[0,0,0,0,0,0,0,0,0,0,0,0,0,0,0,0,0,0,0,0,0,0,0,0,0,0,0,0,0,0,0,0,0,0,0,0,0,0,0,0,0,0,0,0,0,0,0,0,0,0,0,0,0,0,0,0,0,0,0.6614,0.6613,0,0.657,0.657,0.6569,0.6589,0.659,0.6591,0.6592,0.6543,0.6541,0.6539,0,0,0,0,0,0,0,0,0,0,0,0,0,0.6711,0.6709,0.6614,0.6613,0.6613,0.657,0.657,0.6569,0.6589,0.659,0.6591,0.6593,0.6544,0.6541,0.6538,0,0,0,0,0,0,0,0,0,0,0,0,0,0.6668,0.6709,0.6614,0.6618,0.6618,0.657,0.657,0.6569,0.6588,0.659,0.6592,0.6593,0.6545,0.6541,0.6538,0.6484,0,0,0.6527,0.6526,0,0,0,0,0,0,0,0,0.6671,0.6665,0.6618,0.6617,0.6617,0.6587,0.6586,0.654,0.6588,0.6599,0.6592,0.6594,0.6556,0.6552,0.654,0.6481,0.6479,0.6527,0.6525,0.6523,0.6522,0,0,0,0,0,0,0,0.6674,0.6667,0.6597,0.6617,0.6617,0.662,0.6616,0.6577,0.6569,0.6598,0.66,0.6595,0.6556,0.6543,0.6539,0.6478,0.6527,0.6524,0.6522,0.652,0.6373,0.6371,0,0,0,0,0,0,0.6677,0.6669,0.6598,0.6595,0.6649,0.6617,0.6613,0.6595,0.6569,0.6567,0.6593,0.6596,0.6548,0.6543,0.6537,0.6471,0.6523,0.652,0.6518,0.6375,0.6372,0.637,0,0,0,0,0,0,0.6679,0.6671,0.66,0.6633,0.6624,0.6614,0.6594,0.6593,0.658,0.6565,0.6564,0.6582,0.6549,0.6542,0.6497,0.647,0.6519,0.6515,0.6377,0.6374,0.6371,0.6339,0,0,0,0,0,0,0.6682,0.6671,0.6651,0.6632,0.6622,0.6561,0.6592,0.6591,0.6574,0.6577,0.6554,0.6552,0.655,0.6502,0.6494,0.6466,0.6513,0.6379,0.6376,0.6372,0.6342,0.6336,0.633,0,0,0,0,0,0.6685,0.6643,0.665,0.6641,0.6597,0.656,0.6554,0.6554,0.6572,0.6551,0.6542,0.6553,0.6475,0.6497,0.6488,0.6459,0.6381,0.6377,0.6373,0.6345,0.6337,0.633,0,0,0,0,0,0,0.6657,0.664,0.6648,0.6598,0.658,0.6563,0.6536,0.6545,0.652,0.6523,0.6524,0.6518,0.6471,0.6461,0.6486,0.6405,0.643,0.6424,0.6413,0.6405,0.6399,0.6401,0.651,0,0,0,0,0,0.6645,0.6618,0.6604,0.6562,0.6552,0.6546,0.653,0.6532,0.6512,0.6504,0.6492,0.6472,0.6443,0.6424,0.6396,0.6342,0.6336,0.6317,0.6311,0.6306,0.63,0.6269,0.626,0.6357,0.6357,0.6357,0,0,0.662,0.6608,0.659,0.6556,0.6542,0.6512,0.6539,0.6507,0.6484,0.6499,0.6456,0.6446,0.6424,0.6374,0.6351,0.6363,0.6272,0.63,0.6296,0.6293,0.6264,0.6255,0.6247,0.6354,0.6355,0.6355,0,0,0.6559,0.6547,0.651,0.6497,0.6476,0.6473,0.6464,0.6445,0.644,0.6397,0.6408,0.6381,0.6331,0.6315,0.63,0.6234,0.6242,0.6225,0.619,0.6161,0.6154,0.6147,0.6122,0.6113,0.622,0.6219,0.6219,0,0.6529,0.6486,0.649,0.6456,0.6441,0.6455,0.6417,0.6403,0.6374,0.6363,0.6378,0.6316,0.6302,0.6248,0.6232,0.622,0.6209,0.6226,0.6155,0.6148,0.6142,0.6118,0.6109,0.6217,0.6218,0.6218,0.6218,0,0.6451,0.642,0.6393,0.6366,0.6348,0.6312,0.631,0.629,0.6294,0.6289,0.6245,0.6229,0.6199,0.6186,0.6189,0.6133,0.6141,0.6155,0.6181,0.613,0.6108,0.6099,0.6214,0.6215,0.6216,0.6216,0,0,0.6368,0.6345,0.6335,0.6323,0.6303,0.6279,0.6244,0.6216,0.6198,0.6179,0.6148,0.6107,0.612,0.6104,0.6105,0.608,0.6027,0.6097,0.6096,0.6083,0.5963,0.5951,0.594,0.6034,0.6032,0.6031,0.5964,0,0.6304,0.6244,0.6247,0.619,0.6162,0.6176,0.6146,0.6129,0.6124,0.6098,0.6091,0.6061,0.6082,0.6072,0.6048,0.6039,0.6003,0.6044,0.6004,0.6002,0.6007,0.5929,0.5916,0.5853,0.5956,0.5954,0.5953,0,0.6221,0.62,0.614,0.6125,0.6113,0.6085,0.606,0.6036,0.6017,0.6015,0.5997,0.6003,0.5967,0.5995,0.5944,0.5972,0.5956,0.595,0.5947,0.5942,0.5973,0.5919,0.5834,0.5824,0.594,0.5941,0.5942,0,0.6165,0.6121,0.608,0.607,0.6051,0.6031,0.6022,0.6005,0.5988,0.5966,0.5955,0.5928,0.5913,0.5892,0.589,0.5911,0.5838,0.5867,0.5834,0.5834,0.5816,0.5816,0.5724,0.5809,0.5809,0.5809,0.5809,0,0.6092,0.6054,0.6055,0.6029,0.5988,0.5992,0.5951,0.5943,0.5929,0.5901,0.5912,0.5886,0.5886,0.5859,0.5858,0.5815,0.5809,0.5805,0.5804,0.5802,0.5803,0.579,0.5794,0.5807,0.5807,0.5808,0.5808,0,0.6021,0.602,0.5976,0.5962,0.5958,0.5928,0.5916,0.5891,0.5887,0.5852,0.5844,0.5838,0.5807,0.5804,0.5767,0.5766,0.5714,0.572,0.5721,0.5721,0.5688,0.569,0.5583,0.5568,0.5664,0.5663,0.5662,0,0.5973,0.5945,0.5929,0.5912,0.5902,0.5875,0.5858,0.5862,0.5843,0.5821,0.5799,0.5769,0.5745,0.5695,0.5686,0.5658,0.5661,0.5626,0.5657,0.5656,0.5659,0.566,0.5656,0.5619,0.5618,0.5617,0.5616,0,0.5889,0.589,0.5866,0.5842,0.5822,0.5803,0.5785,0.577,0.5771,0.575,0.572,0.5701,0.5665,0.5635,0.5608,0.5597,0.5606,0.5607,0.5598,0.5594,0.5596,0.5593,0.5702,0.5609,0.561,0.561,0.5611,0.5611,0.5827,0.5802,0.5788,0.576,0.5748,0.5731,0.5708,0.5702,0.5677,0.5648,0.5652,0.5617,0.56,0.5565,0.5552,0.5524,0.5536,0.5523,0.5519,0.5515,0.5511,0.5602,0.552,0.552,0.552,0.552,0.552,0,0.5741,0.5733,0.5708,0.5684,0.5662,0.5676,0.5657,0.5637,0.5608,0.5591,0.5569,0.5533,0.5504,0.5494,0.5466,0.5445,0.5449,0.5438,0.5438,0.5435,0.5503,0.5513,0.5435,0.5435,0.5436,0.5436,0.5436,0.5436,0.5694,0.5654,0.5653,0.5606,0.5598,0.5566,0.5554,0.5538,0.5525,0.5485,0.5462,0.5457,0.5442,0.5414,0.5387,0.5385,0.5373,0.536,0.5359,0.5422,0.5431,0.5439,0.5448,0.5358,0.5358,0.5294,0.5293,0.5293]}]]